Regional Weather Roundup
Issued by NWS Upton, NY

Current Version | Previous Version | Graphics & Text | Print | Product List | Glossary Off
Versions: 1 2 3 4 5 6 7 8 9 10 11 12 13 14 15 16 17 18 19 20 21 22 23 24 25 26 27 28 29 30 31 32 33 34 35 36 37 38 39 40 41 42 43 44 45 46 47 48 49 50

000
ASUS41 KOKX 290505
RWROKX

REGIONAL WEATHER ROUNDUP
NATIONAL WEATHER SERVICE NEW YORK NY
100 AM EDT TUE JUL 29 2014

NOTE: "FAIR" INDICATES FEW OR NO CLOUDS BELOW 12,000 FEET WITH NO
SIGNIFICANT WEATHER AND/OR OBSTRUCTIONS TO VISIBILITY.

NYZ071-072-176-178-NJZ106-104-290600-
NEW YORK CITY METRO AREA


CITY           SKY/WX    TMP DP  RH WIND       PRES   REMARKS
CENTRAL PARK   PTCLDY    68  55  63 VRB6      29.74R
LAGUARDIA APRT PTCLDY    69  57  65 NW21G32   29.70R
KENNEDY INTL   PTCLDY    69  56  62 NW21      29.71R
NEWARK/LIBERTY PTCLDY    67  57  70 NW10      29.71R
BRNX BOT. GARD   N/A     66  55  68 N3        29.73R
TETERBORO      PTCLDY    69  55  60 NW10G18   29.70R
$$

NYZ177-179-078>081-290600-
LONG ISLAND NEW YORK

CITY           SKY/WX    TMP DP  RH WIND       PRES   REMARKS
FARMINGDALE    CLEAR     67  57  70 NW10G18   29.69R
ISLIP          MOCLDY    70  57  63 W10       29.66R
SHIRLEY        PTCLDY    69  59  70 NW15G21   29.67R
WESTHAMPTON    PTCLDY    69  60  73 NW12      29.67R
MONTAUK POINT    N/A     71  64  78 W9G22     29.64R
$$

NYZ052-065-067-290600-
HUDSON VALLEY

CITY           SKY/WX    TMP DP  RH WIND       PRES   REMARKS
WHITE PLAINS   PTCLDY    65  57  75 NW14      29.69R
NEWBURGH       NOT AVBL
MONTGOMERY     PTCLDY    64  56  75 NW10G18   29.71S
POUGHKEEPSIE   CLOUDY    67  57  70 W6        29.68R
ALBANY         CLOUDY    62  58  86 W7        29.70R
$$

NJZ001-105-106-008-010-013-015-019>022-104-290600-
NEW JERSEY

CITY           SKY/WX    TMP DP  RH WIND       PRES   REMARKS
NEWARK/LIBERTY PTCLDY    67  57  70 NW10      29.71R
TETERBORO      PTCLDY    69  55  60 NW10G18   29.70R
CALDWELL       PTCLDY    66  54  65 NW9       29.73R
MORRISTOWN     PTCLDY    66  55  68 NW6       29.74R
SOMERVILLE     CLEAR     66  55  67 NW9G17    29.73R
LINDEN         FAIR      68  57  68 NW14      29.73S
SUSSEX         CLOUDY    66  56  70 MISG      29.75R
ANDOVER          N/A     63  56  78 CALM      29.76R
TRENTON        CLEAR     66  55  67 MISG      29.75R
MILLVILLE      MOCLDY    69  61  75 NW8       29.78R
ATLANTIC CITY  CLEAR     67  59  75 NW10      29.76R
WRIGHTSTOWN    CLEAR     66  57  72 NW12      29.75R
TOMS RIVER     CLEAR     66  57  72 NW7       29.75R
BELMAR         CLEAR     66  55  68 NW10      29.73R
$$

PAZ047>061-062-071-290600-
EASTERN PENNSYLVANIA

CITY           SKY/WX    TMP DP  RH WIND       PRES   REMARKS
PHILADELPHIA   PTCLDY    69  57  65 NW16G23   29.78R
ALLENTOWN      PTCLDY    64  54  69 VRB6      29.78S
SCRANTON       LGT RAIN  60  56  86 NW5       29.81F FOG
$$

CTZ002-004>006-009-010-012-RIZ004-006-007-MAZ004-011-015-290600-
SOUTHERN NEW ENGLAND
 IN CT

CITY           SKY/WX    TMP DP  RH WIND       PRES   REMARKS
BRADLEY INTL   PTCLDY    65  58  78 NW10      29.62S
HARTFORD       PTCLDY    66  57  72 NW7       29.64R
DANBURY        PTCLDY    65  55  70 W6        29.69R
WTRBRY/OXFORD  MOCLDY    63  54  72 NW10G20   29.69R
BRIDGEPORT     PTCLDY    69  59  70 W9        29.66R
MERIDEN        MOCLDY    67  57  70 NW12      29.65R
NEW HAVEN      PTCLDY    69  57  65 NW14G22   29.65R
CHESTER        MOCLDY    66  61  82 NW8       29.64R
GROTON         CLEAR     68  62  81 W9        29.62R
WILLIMANTIC    CLEAR     66  60  81 W8        29.63R

 IN RI

CITY           SKY/WX    TMP DP  RH WIND       PRES   REMARKS
PROVIDENCE     CLEAR     69  61  75 W13       29.60R
BLOCK ISLAND   CLEAR     68  63  83 W13G18    29.63R
WESTERLY       CLEAR     69  62  78 W5        29.62R

 IN MA

CITY           SKY/WX    TMP DP  RH WIND       PRES   REMARKS
BOSTON         CLEAR     69  62  78 SW13      29.55S
WORCESTER      MOCLDY    63  57  81 NW17      29.61R
WESTFIELD      CLEAR     65  58  78 NW7       29.62S
PROVINCETOWN   CLEAR     70  64  83 S12       29.57R
NANTUCKET      CLEAR     68  65  90 SW18      29.62R
$$

ANZ330-335-338-340-345-350-353-355-290600-
COASTAL MARINE OBSERVATIONS


STATION/POSITION TIME  SKY/WX   TEMP    WIND        PRES    VSBY  WAVE
                                AIR SEA DIR/SP/G                  HT/PER
                 (UTC)          (F)     (DEG/KT/KT) (MB)    (MI)  (FT/S)
NY HARB ENTRANCE NOT AVBL
4S FIRE IS       NOT AVBL
23SW MTP         0500            70 69              1003.2          5/ 8
HUDSON CANYON    0500            73 74  300/ 17/ 21 1005.6          5/ 8
EXECUTION ROCKS  0500            68 70  300/ 16/ 23   N/A
WESTERN LI SOUND 0500            69     300/ 14/ 19   N/A           1/ 3
CENTRAL LI SOUND 0400            69 71  300/ 17/ 21   N/A           3/ 5
EASTERN LI SOUND 0400            69 68  270/ 12/ 14   N/A
ROBBINS REEF     0400            68     300/ 21/ 25   N/A
$$


>>>>>>>>>>>>>>>>>>>>>>>>>>>> KEY <<<<<<<<<<<<<<<<<<<<<<<<<<<
>                                                          <
>     SKY/WX - SKY CONDITION/PRESENT WEATHER               <
>     TMP    - TEMPERATURE IN FAHRENHEIT                   <
>     DP     - DEWPOINT IN FAHRENHEIT                      <
>     RH     - RELATIVE HUMIDITY IN PERCENT                <
>     WIND   - DIRECTION AND SPEED IN MPH                  <
>     PRES   - MEAN SEA LEVEL PRESSURE IN INCHES OF HG     <
>     WCI    - WIND CHILL INDEX                            <
>     VSB    - VISIBILITY IN MILES                         <
>     HX     - HEAT INDEX                                  <
>     TC     - TEMPERATURE IN CELSIUS                      <
>     VRB    - VARIABLE WIND DIRECTION                     <
>                                                          <
>>>>>>>>>>>>>>>>>>>>>>>>>>>> KEY <<<<<<<<<<<<<<<<<<<<<<<<<<<





USA.gov is the U.S. government's official web portal to all federal, state and local government web resources and services.